#timestamp,LO_Frequency,Hit,StdDev 
1607342415.3,286047004.1,P
1607342435.1,286047004.0,N
1607342455.8,286047001.7,N
1607342475.7,286047003.5,N
1607342495.5,286047005.4,Y
1607342515.4,286047004.0,P
1607342535.2,286047004.1,P
1607342555.0,286047003.8,P
1607342555.9,286047003.8,Y
1607342575.8,286046998.1,P
1607342595.6,286047001.5,N
1607342615.4,286047001.6,N
1607342635.3,286047002.6,N
1607342655.1,286047002.2,N
1607342656.0,286047002.2,N
1607342675.8,286047001.7,N
1607342695.7,286047004.2,N
1607342715.5,286047003.9,N
1607342735.3,286047003.6,N
1607342755.2,286047001.9,N
1607342775.9,286047004.4,N
1607342795.7,286047003.5,N
1607342815.6,286047005.9,Y
1607342835.4,286047002.2,P
1607342855.2,286047001.9,P
1607342875.1,286047001.4,P
1607342876.0,286047001.4,Y
1607342895.8,286047002.0,P
1607342915.6,286047000.1,P
1607342935.5,286046999.8,N
1607342955.3,286047001.8,N
1607342975.1,286047004.4,Y
1607342995.9,286047002.5,P
1607343015.7,286047001.8,N
1607343035.5,286047004.1,P
1607343055.4,286047005.6,Y
1607343075.2,286047004.1,P
1607343095.0,286047005.8,P
1607343095.9,286047005.8,P
1607343115.8,286047005.0,Y
1607343135.6,286047002.4,P
1607343155.4,286047001.6,N
1607343175.3,286047002.3,N
1607343195.1,286047004.4,Y
1607343215.8,286046999.7,P
1607343235.7,286047002.5,N
1607343255.5,286047002.2,N
1607343275.3,286047002.8,N
1607343295.2,286047002.1,N
1607343315.0,286047003.5,Y
1607343315.9,286047003.5,P
1607343335.8,286047000.1,N
1607343355.6,286046999.8,N
1607343375.4,286046999.8,N
1607343395.3,286047002.8,N
1607343415.1,286047003.9,N
1607343416.0,286047003.9,N
1607343435.8,286047004.1,N
1607343455.7,286047003.6,N
1607343475.5,286047003.4,N
1607343495.3,286047005.9,Y
1607343515.2,286047001.9,P
1607343535.9,286047003.6,P
1607343555.7,286047005.7,P
1607343575.6,286047005.0,Y
1607343595.4,286047000.3,P
1607343615.2,286046999.8,N
1607343635.1,286047004.3,N
1607343636.0,286047004.3,N
1607343655.8,286047003.5,N
1607343675.6,286047003.0,N
1607343695.5,286047005.2,Y
1607343715.3,286047004.1,P
1607343735.1,286047005.0,P
1607343755.9,286047005.2,P
1607343775.7,286047004.8,Y
1607343795.5,286047002.5,P
1607343815.4,286047001.8,N
1607343835.2,286047004.4,P
1607343855.0,286047005.6,Y
1607343855.9,286047005.6,P
1607343875.8,286047002.1,N
1607343895.6,286046999.8,N
1607343915.4,286047002.7,N
1607343935.3,286047002.2,N
1607343955.1,286047001.7,N
1607343956.0,286047001.7,N
1607343975.8,286047003.6,N
1607343995.7,286047002.9,N
1607344015.5,286047005.6,Y
1607344035.3,286047001.8,P
1607344055.2,286047002.2,P
1607344075.9,286047004.3,P
1607344095.7,286047005.9,Y
1607344115.6,286047002.6,P
1607344135.4,286047001.6,P
1607344155.2,286047004.4,P
1607344175.1,286047004.0,Y
1607344176.0,286047004.0,P
1607344195.8,286046999.7,N
1607344215.6,286046999.9,N
1607344235.5,286047002.7,N
1607344255.3,286047002.7,N
1607344275.1,286047000.8,N
1607344295.9,286047000.0,N
1607344315.7,286046996.9,N
1607344335.5,286046997.4,N
1607344355.4,286046995.1,N
1607344375.2,286046995.2,N
1607344395.0,286046993.9,N
1607344395.9,286046993.9,N
1607344415.8,286046994.2,N
1607344435.6,286046994.7,N
1607344455.4,286046994.5,N
1607344475.3,286046991.8,N
1607344495.1,286046992.4,N
1607344496.0,286046992.4,N
1607344515.8,286046992.4,N
1607344535.7,286046992.5,N
1607344555.5,286046990.9,N
1607344575.3,286046990.7,N
1607344595.2,286046991.2,N
1607344615.9,286046990.3,N
1607344635.7,286046991.2,N
1607344655.6,286046989.4,N
1607344675.4,286046989.4,N
1607344695.2,286046987.0,N
1607344715.1,286046989.9,N
1607344716.0,286046989.9,N
1607344735.8,286046987.3,Y
1607344755.6,286046994.4,P
1607344775.5,286046991.7,P
1607344795.3,286046991.9,P
1607344815.1,286046992.4,Y
1607344835.9,286047001.2,P
1607344855.7,286046999.0,N
1607344875.5,286046996.5,N
1607344895.4,286046996.5,N
1607344915.2,286046998.9,N
1607344935.0,286046997.2,N
1607344935.9,286046997.2,N
1607344955.8,286046997.5,N
1607344975.6,286046995.4,N
1607344995.4,286046995.9,N
1607345015.3,286046995.9,N
1607345035.1,286046995.9,N
1607345036.0,286046995.9,N
1607345055.8,286046993.9,Y
1607345075.7,286046997.8,P
1607345095.5,286046995.4,P
1607345115.3,286046995.9,P
1607345135.2,286046993.4,Y
1607345155.9,286046997.0,P
1607345175.7,286046997.4,P
1607345195.6,286046996.8,P
1607345215.4,286046997.9,Y
1607345235.2,286047001.1,P
1607345255.1,286046999.1,N
1607345256.0,286046999.1,N
1607345275.8,286046999.2,N
1607345295.6,286046999.2,N
1607345315.5,286046997.3,N
1607345335.3,286046997.3,N
1607345355.1,286046997.7,N
1607345375.9,286046996.1,Y
1607345395.7,286046995.5,P
1607345415.5,286046996.2,N
1607345435.4,286046993.4,P
1607345455.2,286046993.9,Y
1607345475.0,286046996.9,P
1607345475.9,286046996.9,P
1607345495.8,286046997.2,P
1607345515.6,286046997.2,Y
1607345535.4,286047000.3,P
1607345555.3,286047000.0,N
1607345575.1,286047001.2,N
1607345576.0,286047001.2,N
1607345595.8,286047000.8,N
1607345615.7,286046998.6,N
1607345635.5,286046998.8,N
1607345655.3,286046999.4,N
1607345675.2,286046997.7,N
1607345695.9,286046996.7,N
1607345715.7,286046997.5,N
1607345735.6,286046995.6,N
1607345755.4,286046995.4,N
1607345775.2,286046996.0,N
1607345795.1,286046993.7,Y
1607345796.0,286046993.7,P
1607345815.8,286046995.1,N
1607345835.6,286046996.0,N
1607345855.5,286046993.4,Y
1607345875.3,286046999.1,P
1607345895.1,286046999.6,N
1607345915.9,286046996.8,N
1607345935.7,286046997.4,N
1607345955.5,286046997.9,N
1607345975.4,286046995.7,Y
1607345995.2,286046997.8,P
